Juan de Fuca Strait - west entrance: Past 24 Hour Conditions

 

Sheringham Point

06:00 PM PST 25 November 2014
This table is a summary of hourly weather conditions for the past 24 hours.
Date / Time
(PST)
Wind(knots) Conditions Visibility(km) Pressure(kPa) Air tempC) Relative humidity(%) Dew pointC)
25 November 2014
18:00 E 6 N/A N/A 102.1 8 97 7
17:00 ESE 10 N/A N/A 102.1 8 97 7
16:00 ESE 11 N/A N/A 102.1 8 97 7
15:00 E 14 N/A N/A 102.1 8 97 7
14:00 ESE 13 N/A N/A 102.2 8 96 7
13:00 E 5 N/A N/A 102.3 8 96 7
12:00 ESE 10 N/A N/A 102.3 8 96 7
11:00 E 13 N/A N/A 102.3 8 95 7
10:00 ESE 15 N/A N/A 102.3 8 96 8
9:00 ESE 15 N/A N/A 102.3 9 97 8
8:00 ESE 13 N/A N/A 102.2 9 97 8
7:00 ESE 9 N/A N/A 102.2 9 97 9
6:00 W 4 N/A N/A 102.2 10 97 10
5:00 WNW 7 N/A N/A 102.1 10 96 10
4:00 NW 7 N/A N/A 102.1 11 95 10
3:00 WNW 7 N/A N/A 102.1 11 95 10
2:00 WNW 12 gust 17 N/A N/A 102.0 11 98 11
1:00 WNW 17 N/A N/A 102.0 11 98 10
0:00 WNW 16 gust 21 N/A N/A 101.9 11 97 11
24 November 2014
23:00 WNW 14 N/A N/A 101.8 12 97 11
22:00 WNW 10 gust 15 N/A N/A 101.8 11 97 11
21:00 WNW 7 N/A N/A 101.8 10 96 10
20:00 WSW 3 N/A N/A 101.7 9 96 8
19:00 calm N/A N/A 101.7 9 95 8
18:00 NE 5 N/A N/A 101.7 8 94 8
 
Map of Pacific - South Coast marine weather areas Tsawwassen Ferry Terminal South Nomad - 46036 Sentry Shoal - 46131 South Brooks - 46132 Halibut Bank - 46146 South Moresby - 46147 South Hecate Strait - 46185 West Sea Otter - 46204 La Perouse Bank - 46206 East Dellwood - 46207 Discovery Island Esquimalt Harbour Kelp Reefs Malahat Race Rocks Lightstation Saturna Island Sheringham Point University of Victoria Victoria Gonzales Victoria Int'l Airport Ballenas Islands Campbell River Airport Comox Airport Entrance Island Fanny Island Nanaimo Airport Port Hardy Airport Sisters Islets Estevan Point Sartine Island Solander Island Tofino Airport Grief Point Powell River Airport Sechelt Cape St.James Bella Bella Airport Bella Coola Airport Cathedral Point Herbert Island Point Atkinson Sand Heads Lightstation Vancouver Harbour Vancouver Int'l Airport West Vancouver Port Alberni Howe Sound - Pam Rocks Squamish Airport